Regional Weather Roundup
Issued by NWS Albany, NY

Home | Current Version | Previous Version | Graphics & Text | Print | Product List | Glossary On
Versions: 1 2 3 4 5 6 7 8 9 10 11 12 13 14 15 16 17 18 19 20 21 22 23 24 25 26 27 28
000
ASUS41 KALY 031210
RWRALY

NEW YORK STATE HOURLY WEATHER ROUNDUP
NATIONAL WEATHER SERVICE ALBANY NY
700 AM EST SAT DEC 03 2016

NOTE: "FAIR" INDICATES FEW OR NO CLOUDS BELOW 12,000 FEET WITH NO
SIGNIFICANT WEATHER AND/OR NO OBSTRUCTIONS TO VISIBILITY.

NYZ032-033-038>043-046>054-057>066-NYZ062>081-082-084-031300-
EAST


CITY           SKY/WX    TMP DP  RH WIND       PRES   REMARKS
ALBANY         MOCLDY    37  26  64 NW10G24   29.95R WCI  30
GLENS FALLS    CLOUDY    39  24  55 VRB5      29.91R
POUGHKEEPSIE   CLOUDY    39  27  62 W5        29.95
NEWBURGH       PTCLDY    37  30  75 NW17G31   29.95R WCI  28
MONTGOMERY     PTCLDY    40  27  59 W15G25    29.95R WCI  32
WHITE PLAINS   MOCLDY    40  27  59 NW14      29.95R WCI  32
ISLIP          PTCLDY    40  28  62 W14       29.94R WCI  32
NEW YORK CITY  PTCLDY    44  28  53 NW17      29.98R
CENTRAL PARK   MOCLDY    42  25  50 NW6       30.01R
$$

NYZ005>009-017-018-044>046-055-056-031300-
CENTRAL


CITY           SKY/WX    TMP DP  RH WIND       PRES   REMARKS
FULTON         CLOUDY    37  27  67 NW10G22   30.05R WCI  30
SYRACUSE       FLURRIES  36  28  73 W15G23    30.05R WCI  27
ROME           CLOUDY    34  32  92 W8        30.02R WCI  27
ELMIRA         CLOUDY    38  28  67 W9        30.07  WCI  31
BINGHAMTON     MIX PCPN  31  26  82 NW15G21   30.01R WCI  20
MONTICELLO     CLOUDY    34  27  75 NW13G26   29.97R WCI  25
$$

NYZ026>034-041>043-087-031300-
NORTH


CITY           SKY/WX    TMP DP  RH WIND       PRES   REMARKS
WATERTOWN      CLOUDY    36  26  67 W8        30.03R WCI  30
FORT DRUM      NOT AVBL
OGDENSBURG     CLOUDY    35  29  80 NW8       29.99R WCI  28
MASSENA        CLOUDY    35  26  69 W13G21    29.98R WCI  26
SARANAC LAKE   LGT SNOW  29  25  85 VRB6      29.87  FOG     WCI  23
PLATTSBURGH    CLOUDY    36  27  69 W7G17     29.89  WCI  30
$$

NYZ001>004-010>016-019>021-085-031300-
WEST


CITY           SKY/WX    TMP DP  RH WIND       PRES   REMARKS
NIAGARA FALLS  MOCLDY    34  28  79 W10       30.15R WCI  26
BUFFALO        MOCLDY    35  29  78 W12       30.14R WCI  27
DUNKIRK        CLOUDY    41  34  76 NW14      30.17R
JAMESTOWN      CLOUDY    36  30  80 NW15      30.13R WCI  26
WELLSVILLE     CLOUDY    34  29  82 NW16G26   30.08R WCI  24
ROCHESTER      CLOUDY    37  29  72 NW7       30.11R WCI  32
PENN YAN       FLURRIES  36  29  75 NW8G16    30.08R WCI  30
$$

             KEY
       WCI = WIND CHILL INDEX
       VSB = VISIBILITY
       HX  = HEAT INDEX
$$




USA.gov is the U.S. government's official web portal to all federal, state and local government web resources and services.